PROMETHEUS 2-3 (41855 NORAD) Tracking and Keplerian Element Data

This shows tracking and keplerian element data for the satellite.

Feedback or suggestion? Click here.




ElementValue
Catalog41855
NamePROMETHEUS 2-3
Epoch Orbit13249
Epoch Day106.83939025
Epoch Year2019
RAAN203.5943
Inclination97.9152
Eccentricity0.0009307
Argument of Perigee230.7484
Mean Anonmoly129.2912
Mean Motion14.9684458
Decay Rate-9.3E-07
L11 41855U 16067H 19106.83939025 -.00000093 00000-0 -27858-5 0 9998
L22 41855 97.9152 203.5943 0009307 230.7484 129.2912 14.96844580132495

Live tracking and technical data element details for PROMETHEUS 2-3 (NORAD 41855). PROMETHEUS 2-3 can be tracked NOW for your location showing map with azimuth and elevation plus other details from your city location.

Track the satellite on the map from your city or location and see movement details for azimuth, elevation, latitude, longitude, range, height, and movement on the map or in text.







IsCatalogInMostPopularTable: catalog: 41855, numindb: 144
Update: records affected: 1



GetName: 41855 PROMETHEUS 2-3

Hit Count: updated at: Sat, 20 Apr 2019 00:33:24 GMT